TimeCEST,TemperatureF,Dew PointF,Humidity,Sea Level PressureIn,VisibilityMPH,Wind Direction,Wind SpeedMPH,Gust SpeedMPH,PrecipitationIn,Events,Conditions,WindDirDegrees,DateUTC
12:00 AM,60,58,90,30.08,,Calm,Calm,,,,,,2013-05-01 22:00:00
12:20 AM,59.0,57.2,94,30.06,6.2,Variable,1.2,-,N/A,,Mostly Cloudy,0,2013-05-01 22:20:00
12:50 AM,59.0,59.0,100,30.06,6.2,Variable,1.2,-,N/A,,Scattered Clouds,0,2013-05-01 22:50:00
1:00 AM,60,58,91,30.07,,Calm,Calm,,,,,,2013-05-01 23:00:00
1:20 AM,59.0,57.2,94,30.06,6.2,Variable,1.2,-,N/A,,Scattered Clouds,0,2013-05-01 23:20:00
1:50 AM,57.2,57.2,100,30.06,6.2,Variable,2.3,-,N/A,,Scattered Clouds,0,2013-05-01 23:50:00
2:20 AM,57.2,57.2,100,30.06,6.2,Variable,1.2,-,N/A,,Mostly Cloudy,0,2013-05-02 00:20:00
2:50 AM,57.2,55.4,94,30.06,6.2,Variable,1.2,-,N/A,,Mostly Cloudy,0,2013-05-02 00:50:00
3:00 AM,59,55,82,30.06,,NW,3.5,,,,,310,2013-05-02 01:00:00
3:20 AM,57.2,55.4,94,30.04,6.2,Variable,2.3,-,N/A,,Partly Cloudy,0,2013-05-02 01:20:00
3:50 AM,57.2,55.4,94,30.06,6.2,SSE,3.5,-,N/A,,Mostly Cloudy,160,2013-05-02 01:50:00
4:00 AM,58,55,87,30.05,,NW,1.2,,,,,320,2013-05-02 02:00:00
4:20 AM,57.2,55.4,94,30.04,6.2,SSE,3.5,-,N/A,,Partly Cloudy,160,2013-05-02 02:20:00
4:50 AM,57.2,55.4,94,30.04,6.2,Variable,2.3,-,N/A,Rain,Light Rain,0,2013-05-02 02:50:00
5:20 AM,55.4,53.6,94,30.04,6.2,Variable,1.2,-,N/A,,Partly Cloudy,0,2013-05-02 03:20:00
5:50 AM,55.4,53.6,94,30.04,6.2,Variable,3.5,-,N/A,,Partly Cloudy,0,2013-05-02 03:50:00
6:00 AM,56,55,95,30.04,,North,2.3,,,,,0,2013-05-02 04:00:00
6:20 AM,55.4,53.6,94,30.04,6.2,Variable,1.2,-,N/A,,Mostly Cloudy,0,2013-05-02 04:20:00
6:29 AM,55.4,53.6,94,30.04,6.2,Variable,2.3,-,N/A,,Mostly Cloudy,0,2013-05-02 04:29:00
6:50 AM,55.4,53.6,94,30.04,6.2,South,3.5,-,N/A,,Scattered Clouds,170,2013-05-02 04:50:00
7:00 AM,56,55,95,30.03,,NW,2.3,,,,,310,2013-05-02 05:00:00
7:20 AM,55.4,53.6,94,30.04,6.2,Variable,2.3,-,N/A,,Scattered Clouds,0,2013-05-02 05:20:00
7:50 AM,57.2,53.6,88,30.04,6.2,Calm,Calm,-,N/A,,Mostly Cloudy,0,2013-05-02 05:50:00
8:20 AM,57.2,55.4,94,30.04,6.2,Variable,2.3,-,N/A,,Mostly Cloudy,0,2013-05-02 06:20:00
8:50 AM,59.0,55.4,88,30.04,6.2,Variable,2.3,-,N/A,,Mostly Cloudy,0,2013-05-02 06:50:00
9:00 AM,57,56,95,30.04,,SSE,1.2,,,,,160,2013-05-02 07:00:00
9:20 AM,59.0,53.6,82,30.04,6.2,Variable,2.3,-,N/A,,Mostly Cloudy,0,2013-05-02 07:20:00
9:50 AM,60.8,53.6,77,30.04,6.2,Variable,2.3,-,N/A,,Mostly Cloudy,0,2013-05-02 07:50:00
10:00 AM,60,55,78,30.04,,WSW,1.2,,,,,250,2013-05-02 08:00:00
10:20 AM,64.4,55.4,73,30.04,6.2,Variable,2.3,-,N/A,,Partly Cloudy,0,2013-05-02 08:20:00
10:50 AM,66.2,55.4,68,30.04,6.2,Variable,2.3,-,N/A,,Scattered Clouds,0,2013-05-02 08:50:00
11:20 AM,66.2,55.4,68,30.01,6.2,South,4.6,-,N/A,,Partly Cloudy,190,2013-05-02 09:20:00
11:50 AM,68.0,55.4,64,30.01,6.2,South,5.8,-,N/A,,Scattered Clouds,180,2013-05-02 09:50:00
12:00 PM,64,53,60,30.00,,South,2.3,,,,,170,2013-05-02 10:00:00
12:20 PM,69.8,57.2,64,30.01,6.2,South,6.9,-,N/A,,Scattered Clouds,180,2013-05-02 10:20:00
12:50 PM,71.6,55.4,57,29.98,6.2,South,8.1,-,N/A,,Scattered Clouds,180,2013-05-02 10:50:00
1:00 PM,66,56,62,29.98,,ESE,2.3,,,,,120,2013-05-02 11:00:00
1:20 PM,71.6,55.4,57,29.98,6.2,South,9.2,-,N/A,,Scattered Clouds,180,2013-05-02 11:20:00
1:50 PM,73.4,55.4,53,29.98,6.2,South,6.9,-,N/A,,Scattered Clouds,180,2013-05-02 11:50:00
2:20 PM,75.2,55.4,50,29.95,6.2,South,6.9,-,N/A,,Scattered Clouds,190,2013-05-02 12:20:00
2:50 PM,75.2,55.4,50,29.95,6.2,South,6.9,-,N/A,,Mostly Cloudy,190,2013-05-02 12:50:00
3:00 PM,70,54,47,29.93,,SSW,3.5,,,,,210,2013-05-02 13:00:00
3:20 PM,73.4,55.4,53,29.95,6.2,South,4.6,-,N/A,,Mostly Cloudy,190,2013-05-02 13:20:00
3:50 PM,75.2,55.4,50,29.92,6.2,South,6.9,-,N/A,,Mostly Cloudy,190,2013-05-02 13:50:00
4:00 PM,67,56,59,29.91,,South,9.2,,,,,190,2013-05-02 14:00:00
4:20 PM,77.0,57.2,50,29.92,6.2,Variable,5.8,-,N/A,,Scattered Clouds,0,2013-05-02 14:20:00
4:50 PM,73.4,57.2,57,29.92,6.2,SSE,8.1,-,N/A,Thunderstorm,Scattered Clouds,150,2013-05-02 14:50:00
5:20 PM,71.6,59.0,64,29.92,6.2,SE,4.6,-,N/A,Thunderstorm,Mostly Cloudy,140,2013-05-02 15:20:00
5:50 PM,68.0,60.8,78,29.92,6.2,Variable,3.5,-,N/A,Rain-Thunderstorm,Thunderstorms and Rain,0,2013-05-02 15:50:00
6:00 PM,71,57,53,29.89,,WNW,4.6,,,,,300,2013-05-02 16:00:00
6:20 PM,64.4,57.2,77,29.92,5.6,NW,4.6,-,N/A,Thunderstorm,Mostly Cloudy,310,2013-05-02 16:20:00
6:50 PM,64.4,59.0,83,29.92,5.6,Variable,4.6,-,N/A,Thunderstorm,Thunderstorm,0,2013-05-02 16:50:00
7:00 PM,68,58,63,29.90,,North,5.8,,,,,0,2013-05-02 17:00:00
7:20 PM,64.4,57.2,77,29.92,5.6,North,3.5,-,N/A,Thunderstorm,Scattered Clouds,10,2013-05-02 17:20:00
7:50 PM,59.0,57.2,94,29.95,5.6,North,6.9,-,N/A,Rain-Thunderstorm,Thunderstorms and Rain,350,2013-05-02 17:50:00
8:20 PM,60.8,57.2,88,29.95,5.6,NNE,5.8,-,N/A,Thunderstorm,Thunderstorm,20,2013-05-02 18:20:00
8:50 PM,57.2,51.8,82,29.95,6.2,North,10.4,-,N/A,,Mostly Cloudy,360,2013-05-02 18:50:00
9:00 PM,60,57,87,29.95,,NNE,2.3,,,,,30,2013-05-02 19:00:00
9:20 PM,55.4,51.8,88,29.95,6.2,North,10.4,-,N/A,,Mostly Cloudy,360,2013-05-02 19:20:00
9:50 PM,53.6,51.8,94,29.95,6.2,North,4.6,-,N/A,,Mostly Cloudy,360,2013-05-02 19:50:00
10:00 PM,58,56,90,29.96,,North,2.3,,,,,10,2013-05-02 20:00:00
10:20 PM,55.4,53.6,94,29.95,6.2,Variable,1.2,-,N/A,,Mostly Cloudy,0,2013-05-02 20:20:00
10:50 PM,53.6,51.8,94,29.95,-9999.0,Variable,2.3,-,N/A,,Clear,0,2013-05-02 20:50:00
11:20 PM,53.6,53.6,100,29.95,6.2,Variable,1.2,-,N/A,,Unknown,0,2013-05-02 21:20:00
11:50 PM,53.6,53.6,100,29.95,-9999.0,Variable,1.2,-,N/A,,Clear,0,2013-05-02 21:50:00